Orbital Elements at Epoch 2459200.5 (2020-Dec-17.0) TDB
Reference: JPL 21 (heliocentric ecliptic J2000)
Element | Value | Uncertainty (1-sigma) | Units |
e | .05647343363557635 | 4.163e-08 | |
a | 2.829852357852703 | 1.6101e-08 | au |
q | 2.67004087852303 | 1.1779e-07 | au |
i | 8.351296874738177 | 4.3359e-06 | deg |
node | 182.4173329773254 | 2.8882e-05 | deg |
peri | 208.7986901356225 | 4.967e-05 | deg |
M | 31.31463496669003 | 3.8196e-05 | deg |
tp | 2459049.252241862998 (2020-Jul-18.75224186) | 0.00018484 | TDB |
period | 1738.777826637274 4.76 | 1.4839e-05 4.063e-08 | d yr |
n | .207041977695463 | 1.767e-09 | deg/d |
Q | 2.989663837182377 | 1.701e-08 | au |
|
| | Orbit Determination Parameters
Additional Information
|